Location: Chimay
(50.0486°N, 4.3171°E)
Time: 16:35:09
(UTC+00:00)

Cosmos 1503 Rocket - Pass Details

Date: 08 August 2020
Orbit: 753 x 790 km, 74.0° (Epoch: 19 September)

Event Time Altitude Azimuth Distance (km) Brightness Sun altitude
Exits shadow 23:46:00 55° 129° (SE) 952 4.2 -24.2°
Maximum altitude 23:46:28 57° 107° (ESE) 933 4.2 -24.2°
Drops below altitude 10° 23:51:43 10° 31° (NNE) 2,363 7.3 -24.2°
Sets 23:54:09 0° 27° (NNE) 3,294 8.3 -24.2°
